TimeAST,TemperatureF,Dew PointF,Humidity,Sea Level PressureIn,VisibilityMPH,Wind Direction,Wind SpeedMPH,Gust SpeedMPH,PrecipitationIn,Events,Conditions,WindDirDegrees,DateUTC
12:00 AM,87.8,75.2,66,29.86,-9999.0,NNW,5.8,-,N/A,,Clear,340,2012-10-02 21:00:00
12:30 AM,87.8,73.4,62,29.86,5.6,NNW,3.5,-,N/A,,Unknown,330,2012-10-02 21:30:00
1:00 AM,86.0,75.2,70,29.83,5.6,NNW,3.5,-,N/A,,Unknown,340,2012-10-02 22:00:00
1:30 AM,86.0,73.4,66,29.83,-9999.0,NNW,4.6,-,N/A,,Clear,330,2012-10-02 22:30:00
2:00 AM,87.8,73.4,62,29.83,-9999.0,NW,4.6,-,N/A,,Clear,310,2012-10-02 23:00:00
2:30 AM,87.8,69.8,55,29.83,-9999.0,NW,4.6,-,N/A,,Clear,320,2012-10-02 23:30:00
3:00 AM,87,68,43,29.84,6,NNW,6.9,,,,,340,2012-10-03 00:00:00
3:00 AM,87.8,68.0,52,29.83,-9999.0,NNW,6.9,-,N/A,,Clear,340,2012-10-03 00:00:00
3:30 AM,86.0,66.2,51,29.83,-9999.0,NNW,4.6,-,N/A,,Clear,340,2012-10-03 00:30:00
4:00 AM,86.0,64.4,48,29.83,-9999.0,Variable,2.3,-,N/A,,Clear,0,2012-10-03 01:00:00
4:30 AM,86.0,68.0,55,29.83,-9999.0,NW,4.6,-,N/A,,Clear,310,2012-10-03 01:30:00
5:00 AM,86.0,68.0,55,29.83,-9999.0,NW,3.5,-,N/A,,Clear,310,2012-10-03 02:00:00
5:30 AM,84.2,71.6,66,29.86,5.0,Variable,2.3,-,N/A,,Unknown,0,2012-10-03 02:30:00
6:00 AM,86.0,73.4,66,29.86,5.0,WSW,3.5,-,N/A,,Unknown,250,2012-10-03 03:00:00
6:30 AM,86.0,75.2,70,29.86,5.0,WSW,4.6,-,N/A,,Unknown,250,2012-10-03 03:30:00
7:00 AM,87.8,73.4,62,29.86,5.0,West,3.5,-,N/A,,Unknown,270,2012-10-03 04:00:00
7:30 AM,91.4,71.6,52,29.86,5.0,West,3.5,-,N/A,,Unknown,260,2012-10-03 04:30:00
8:00 AM,93.2,68.0,44,29.86,5.6,West,3.5,-,N/A,,Unknown,280,2012-10-03 05:00:00
8:30 AM,96.8,60.8,30,29.86,5.6,NW,4.6,-,N/A,,Unknown,310,2012-10-03 05:30:00
9:00 AM,97,61,21,29.89,6,NNW,6.9,,,,,330,2012-10-03 06:00:00
9:00 AM,96.8,60.8,30,29.89,-9999.0,NNW,6.9,-,N/A,,Clear,330,2012-10-03 06:00:00
9:30 AM,98.6,60.8,29,29.89,-9999.0,NNW,9.2,-,N/A,,Clear,330,2012-10-03 06:30:00
10:00 AM,98.6,60.8,29,29.86,-9999.0,NNW,8.1,-,N/A,,Clear,330,2012-10-03 07:00:00
10:30 AM,100.4,64.4,31,29.86,-9999.0,NNW,8.1,-,N/A,,Clear,330,2012-10-03 07:30:00
11:00 AM,98.6,71.6,42,29.86,5.6,North,9.2,-,N/A,,Unknown,10,2012-10-03 08:00:00
11:30 AM,98.6,71.6,42,29.83,5.6,North,8.1,-,N/A,,Unknown,10,2012-10-03 08:30:00
12:00 PM,100.4,66.2,33,29.83,-9999.0,North,9.2,-,N/A,,Clear,10,2012-10-03 09:00:00
12:30 PM,102.2,62.6,27,29.83,-9999.0,NNE,10.4,-,N/A,,Clear,20,2012-10-03 09:30:00
1:00 PM,102.2,59.0,24,29.80,6.2,NNE,11.5,-,N/A,,Partly Cloudy,20,2012-10-03 10:00:00
1:30 PM,96.8,77.0,53,29.80,5.0,NE,12.7,-,N/A,,Partly Cloudy,40,2012-10-03 10:30:00
2:00 PM,95.0,77.0,56,29.80,5.6,NE,13.8,-,N/A,,Partly Cloudy,40,2012-10-03 11:00:00
2:30 PM,95.0,75.2,53,29.80,6.2,NE,13.8,-,N/A,,Partly Cloudy,40,2012-10-03 11:30:00
3:00 PM,95,75,43,29.80,6,NNE,12.7,,,,Scattered Clouds,30,2012-10-03 12:00:00
3:00 PM,95.0,75.2,53,29.77,6.2,NNE,12.7,-,N/A,,Partly Cloudy,30,2012-10-03 12:00:00
3:30 PM,95.0,77.0,56,29.80,6.2,NNE,12.7,-,N/A,,Partly Cloudy,30,2012-10-03 12:30:00
4:00 PM,93.2,77.0,59,29.80,-9999.0,NNE,12.7,-,N/A,,Clear,20,2012-10-03 13:00:00
4:30 PM,93.2,78.8,63,29.80,-9999.0,NNE,11.5,-,N/A,,Clear,20,2012-10-03 13:30:00
5:00 PM,91.4,77.0,63,29.80,-9999.0,NNE,10.4,-,N/A,,Clear,20,2012-10-03 14:00:00
5:30 PM,91.4,78.8,66,29.80,-9999.0,North,10.4,-,N/A,,Clear,10,2012-10-03 14:30:00
6:00 PM,91.4,78.8,66,29.80,-9999.0,North,10.4,-,N/A,,Clear,10,2012-10-03 15:00:00
6:30 PM,91.4,78.8,66,29.80,-9999.0,North,10.4,-,N/A,,Clear,10,2012-10-03 15:30:00
7:00 PM,89.6,78.8,70,29.80,-9999.0,North,9.2,-,N/A,,Clear,10,2012-10-03 16:00:00
7:30 PM,89.6,78.8,70,29.80,-9999.0,North,8.1,-,N/A,,Clear,10,2012-10-03 16:30:00
8:00 PM,89.6,78.8,70,29.80,-9999.0,North,8.1,-,N/A,,Clear,10,2012-10-03 17:00:00
8:30 PM,89.6,78.8,70,29.83,-9999.0,North,6.9,-,N/A,,Clear,360,2012-10-03 17:30:00
9:00 PM,89,79,65,29.83,6,North,5.8,,,,,0,2012-10-03 18:00:00
9:00 PM,89.6,78.8,70,29.83,-9999.0,North,5.8,-,N/A,,Clear,360,2012-10-03 18:00:00
9:30 PM,89.6,78.8,70,29.80,-9999.0,North,5.8,-,N/A,,Clear,360,2012-10-03 18:30:00
10:00 PM,87.8,78.8,75,29.80,-9999.0,North,5.8,-,N/A,,Clear,350,2012-10-03 19:00:00
10:30 PM,87.8,80.6,79,29.80,-9999.0,North,3.5,-,N/A,,Clear,10,2012-10-03 19:30:00
11:00 PM,87.8,80.6,79,29.80,5.6,NNE,3.5,-,N/A,,Unknown,30,2012-10-03 20:00:00
11:30 PM,87.8,80.6,79,29.80,5.0,North,4.6,-,N/A,,Unknown,10,2012-10-03 20:30:00